[Iaude] MPEC U65: 2023 TV26 [a=2.45,e=0.56,i=8.6,H=25.9]

mpec at marsden.cfa.harvard.edu mpec at marsden.cfa.harvard.edu
Wed Oct 18 09:40:27 EDT 2023


M.P.E.C. 2023-U65                              Issued 2023 October 18, 13:39 UT

     The Minor Planet Electronic Circulars contain information on unusual
         minor planets, routine data on comets and natural satellites,
         and occasional editorial announcements.  They are published
    on behalf of Division F of the International Astronomical Union by the
          Minor Planet Center, Smithsonian Astrophysical Observatory,
                          Cambridge, MA 02138, U.S.A.
			  
             Prepared using the Tamkin Foundation Computer Network

                              MPC at CFA.HARVARD.EDU
            URL https://www.minorplanetcenter.net/    ISSN 1523-6714

                                   2023 TV26                                    


Observations:
     K23T26V*1C2023 10 14.28960901 48 45.335+04 31 08.44         20.55GVEU065G96
     K23T26V 1C2023 10 14.29477201 48 46.987+04 32 07.37         20.51GVEU065G96
     K23T26V 1C2023 10 14.29994501 48 48.647+04 33 04.72               VEU065G96
     K23T26V 1C2023 10 14.30511001 48 50.260+04 34 03.68         20.53GVEU065G96
     K23T26V  C2023 10 14.37994401 49 13.723+04 48 02.99         20.7 GVEU065H01
     K23T26V  C2023 10 14.38424401 49 15.103+04 48 51.35         20.6 GVEU065H01
     K23T26V  C2023 10 14.39416701 49 18.312+04 50 43.01         20.5 GVEU065H01
     K23T26V  C2023 10 14.40487501 49 21.770+04 52 43.13         20.9 GVEU065H01
     K23T26V KC2023 10 14.92959001 52 36.468+06 30 39.46         20.7 GVEU065J95
     K23T26V KC2023 10 14.93767301 52 39.125+06 32 10.46         20.9 GVEU065J95
     K23T26V KC2023 10 15.01156 01 53 02.58 +06 46 10.2                VEU065204
     K23T26V KC2023 10 15.02543 01 53 07.09 +06 48 46.2          20.8 GVEU065204
     K23T26V HC2023 10 15.03868 01 53 11.38 +06 51 14.7                VEU065204
     K23T26V KC2023 10 15.25374801 54 32.65 +07 31 45.9          20.5 GXEU065858
     K23T26V KC2023 10 15.26101801 54 35.01 +07 33 07.6          20.7 GXEU065858
     K23T26V KC2023 10 15.26758901 54 37.06 +07 34 21.4          20.5 GXEU065858
     K23T26V KC2023 10 18.28069502 12 36.32 +16 41 06.8          21.3 VuEU065H21
     K23T26V KC2023 10 18.28350102 12 37.22 +16 41 35.7          21.3 VuEU065H21
     K23T26V KC2023 10 18.28630802 12 38.09 +16 42 05.0          21.3 VuEU065H21
     K23T26V KC2023 10 18.28911502 12 38.99 +16 42 34.2          21.4 VuEU065H21
     K23T26V KC2023 10 18.29192202 12 39.88 +16 43 03.5          21.7 VuEU065H21
     K23T26V KC2023 10 18.29444802 12 40.71 +16 43 29.5          21.6 VuEU065H21

Observer details:
204 Schiaparelli Observatory.  Observers L. Buzzi, G. Galli.  0.84-m f/3.5
    reflector + CCD.
858 Tebbutt Observatory, Edgewood.  Observer F. B. Zoltowski.  0.51-m f/8.1
    Schmidt-Cassegrain + CCD.
G96 Mt. Lemmon Survey.  Observer D. C. Fuls.  Measurers E. C. Beshore, D. Fay,
    J. B. Fazekas, D. C. Fuls, A. R. Gibbs, A. D. Grauer, H. Groeller, J. K.
    Hogan, R. A. Kowalski, S. M. Larson, G. J. Leonard, D. Rankin, R. L.
    Seaman, F. C. Shelly, K. W. Wierzchos.  1.5-m reflector + 10K CCD.
H01 Magdalena Ridge Observatory, Socorro.  Observers W. H. Ryan, E. V. Ryan.
    Measurer W. H. Ryan.  2.4-m f/8.9 Ritchey-Chretien + CCD.
H21 Astronomical Research Observatory, Westfield.  Observer R. Holmes.
    Measurers T. Linder, R. Holmes, L. Horn.  0.81-m f/4.0 astrograph + CCD.
J95 Great Shefford.  Observer P. Birtwhistle.  0.41-m f/6.3 Schmidt-Cassegrain
    + CCD.

Orbital elements:
2023 TV26                                                Earth MOID = 0.0743 AU
Epoch 2023 Sept. 13.0 TT = JDT 2460200.5                Bell                    
M 351.67589              (2000.0)            P               Q                  
n   0.25652328     Peri.  358.36587     +0.92669143     -0.37098573             
a   2.4531166      Node    23.68966     +0.34648565     +0.78140933             
e   0.5631799      Incl.    8.60347     +0.14557021     +0.50176593             
P   3.84           H   25.91          G   0.15           U   8                  
Residuals in seconds of arc
231014 G96  0.2-  0.5-    231014 J95  0.3+  0.3-    231018 H21  0.0   0.4+
231014 G96  0.0   0.3+    231014 J95  0.2-  0.4-    231018 H21  0.1+  0.1+
231014 G96  0.3+  0.7-    231015 204  0.2+  0.2-    231018 H21  0.3-  0.2+
231014 G96  0.1-  0.0     231015 204  0.1+  0.1+    231018 H21  0.2-  0.2+
231014 H01  0.1+  0.1-    231015 204  0.4-  0.0     231018 H21  0.3-  0.3+
231014 H01  0.0   0.0     231015 858  0.5+  0.0     231018 H21  0.1+  0.1+
231014 H01  0.2+  0.1+    231015 858  0.8+  0.0
231014 H01  0.0   0.1-    231015 858  0.0   0.0

Ephemeris:
2023 TV26                a,e,i = 2.45, 0.56, 9                   q = 1.0716
Date    TT    R. A. (2000) Decl.     Delta      r    Elong.  Phase     V
2023 09 18    23 48 09.1 -41 04 53   0.1481  1.1242   141.1    34.2    23.4
...
2023 10 03    00 45 52.1 -25 16 31   0.09262 1.0827   150.9    26.7    22.1
...
2023 10 11    01 29 16.6 -05 35 17   0.07651 1.0730   166.1    13.0    21.2
...
2023 10 17    02 04 58.0 +12 54 18   0.07604 1.0717   169.5     9.8    21.1
2023 10 18    02 10 56.4 +15 52 40   0.07704 1.0720   167.8    11.3    21.2
2023 10 19    02 16 52.7 +18 44 57   0.07832 1.0725   166.0    13.0    21.3
...
2023 10 25    02 50 57.5 +33 06 35   0.09125 1.0781   155.2    22.8    22.0
...
2023 11 02    03 28 57.7 +44 33 12   0.1181  1.0935   147.1    29.5    22.8
...
2023 11 17    04 11 02.6 +52 16 06   0.1830  1.1443   145.4    29.4    23.8

M. P. C. Staff               (C) Copyright 2023 MPC           M.P.E.C. 2023-U65





More information about the Iaude mailing list